,,Stat6,,Stat2,,Stat8,,Stat9,,Stat10,,Wind1,,Wind1,
time,status,PA1M_AVG,status,PR1M_SUM,status,RH1M_AVG,status,SR1M_AVG,status,TA1M_AVG,status,W1dAve1m,status,W1sAve1m,
2005-08-20, 00:00:00,VALID,919.864,VALID,0,VALID,100,VALID,-0.0509425,VALID,18.5218,VALID,153,VALID,0.552144,
2005-08-20, 00:01:00,VALID,919.859,VALID,0,VALID,100,VALID,0,VALID,18.5054,VALID,149,VALID,1.01753,
2005-08-20, 00:02:01,VALID,919.856,VALID,0,VALID,100,VALID,0,VALID,18.5086,VALID,146,VALID,0.991824,
2005-08-20, 00:03:00,VALID,919.857,VALID,0,VALID,100,VALID,-0.0169808,VALID,18.5118,VALID,149,VALID,0.579993,
2005-08-20, 00:04:00,VALID,919.826,VALID,0,VALID,100,VALID,-0.0509425,VALID,18.5019,VALID,149,VALID,0.76617,
2005-08-20, 00:05:01,VALID,919.817,VALID,0,VALID,100,VALID,-0.0679233,VALID,18.5059,VALID,152,VALID,0.766513,
2005-08-20, 00:06:00,VALID,919.807,VALID,0,VALID,100,VALID,0,VALID,18.5188,VALID,156,VALID,1.03312,
2005-08-20, 00:07:00,VALID,919.798,VALID,0,VALID,100,VALID,-0.0339617,VALID,18.5086,VALID,153,VALID,1.06612,
2005-08-20, 00:08:00,VALID,919.786,VALID,0,VALID,100,VALID,-0.0169808,VALID,18.528,VALID,149,VALID,1.06441,
2005-08-20, 00:09:01,VALID,919.781,VALID,0,VALID,100,VALID,0.0169808,VALID,18.5312,VALID,152,VALID,1.17569,
2005-08-20, 00:10:00,VALID,919.779,VALID,0,VALID,100,VALID,0,VALID,18.5508,VALID,133,VALID,1.28488,
2005-08-20, 00:11:00,VALID,919.765,VALID,0,VALID,100,VALID,0,VALID,18.5506,VALID,136,VALID,1.15712,
2005-08-20, 00:12:01,VALID,919.761,VALID,0,VALID,100,VALID,0,VALID,18.5667,VALID,145,VALID,1.23611,
2005-08-20, 00:13:00,VALID,919.763,VALID,0,VALID,100,VALID,0,VALID,18.573,VALID,158,VALID,0.834695,
2005-08-20, 00:14:00,VALID,919.751,VALID,0,VALID,100,VALID,0,VALID,18.5863,VALID,152,VALID,0.999809,
2005-08-20, 00:15:01,VALID,919.752,VALID,0,VALID,100,VALID,0,VALID,18.5831,VALID,156,VALID,1.60004,
2005-08-20, 00:16:00,VALID,919.726,VALID,0,VALID,100,VALID,0,VALID,18.6186,VALID,159,VALID,1.34702,
2005-08-20, 00:17:00,VALID,919.719,VALID,0,VALID,100,VALID,0,VALID,18.6152,VALID,150,VALID,1.42721,
2005-08-20, 00:18:00,VALID,919.71,VALID,0,VALID,100,VALID,-0.0169808,VALID,18.6184,VALID,162,VALID,1.04324,
2005-08-20, 00:19:01,VALID,919.69,VALID,0,VALID,100,VALID,0,VALID,18.599,VALID,158,VALID,1.1668,
2005-08-20, 00:20:00,VALID,919.682,VALID,0,VALID,100,VALID,0,VALID,18.6223,VALID,147,VALID,1.22567,
2005-08-20, 00:21:01,VALID,919.665,VALID,0,VALID,100,VALID,-0.0339617,VALID,18.6318,VALID,133,VALID,1.26905,
2005-08-20, 00:22:00,VALID,919.659,VALID,0,VALID,100,VALID,-0.0339617,VALID,18.6378,VALID,140,VALID,1.30051,
2005-08-20, 00:23:00,VALID,919.657,VALID,0,VALID,100,VALID,-0.0509425,VALID,18.6445,VALID,141,VALID,1.08937,
2005-08-20, 00:24:00,VALID,919.647,VALID,0,VALID,100,VALID,-0.0339617,VALID,18.6445,VALID,146,VALID,1.15764,
2005-08-20, 00:25:01,VALID,919.642,VALID,0,VALID,100,VALID,0,VALID,18.6417,VALID,157,VALID,1.49041,
2005-08-20, 00:26:00,VALID,919.623,VALID,0,VALID,100,VALID,-0.0169808,VALID,18.6512,VALID,156,VALID,1.0932,
2005-08-20, 00:27:00,VALID,919.617,VALID,0,VALID,100,VALID,-0.0339617,VALID,18.6541,VALID,154,VALID,1.13699,
2005-08-20, 00:28:01,VALID,919.608,VALID,0,VALID,100,VALID,0,VALID,18.6509,VALID,145,VALID,1.1695,
2005-08-20, 00:29:01,VALID,919.601,VALID,0,VALID,100,VALID,0.0169808,VALID,18.6574,VALID,137,VALID,1.04364,
2005-08-20, 00:30:00,VALID,919.574,VALID,0,VALID,100,VALID,0.0169808,VALID,18.647,VALID,142,VALID,1.26526,
2005-08-20, 00:31:01,VALID,919.567,VALID,0,VALID,100,VALID,0,VALID,18.6599,VALID,157,VALID,1.06343,
2005-08-20, 00:32:01,VALID,919.567,VALID,0,VALID,100,VALID,0.0169808,VALID,18.6599,VALID,139,VALID,0.690341,
2005-08-20, 00:33:00,VALID,919.564,VALID,0,VALID,100,VALID,0.0339617,VALID,18.6539,VALID,142,VALID,0.890278,
2005-08-20, 00:34:01,VALID,919.558,VALID,0,VALID,100,VALID,0.0339617,VALID,18.6338,VALID,124,VALID,0.631541,
2005-08-20, 00:35:01,VALID,919.557,VALID,0,VALID,100,VALID,0,VALID,18.6278,VALID,142,VALID,0.543445,
2005-08-20, 00:36:01,VALID,919.541,VALID,0,VALID,100,VALID,0,VALID,18.6147,VALID,143,VALID,0.553125,
2005-08-20, 00:37:01,VALID,919.54,VALID,0,VALID,100,VALID,0,VALID,18.6251,VALID,150,VALID,0.446615,
2005-08-20, 00:38:00,VALID,919.525,VALID,0,VALID,100,VALID,0.0509425,VALID,18.602,VALID,144,VALID,0.219922,
2005-08-20, 00:39:01,VALID,919.512,VALID,0,VALID,100,VALID,0.0509425,VALID,18.5752,VALID,144,VALID,0.267361,
2005-08-20, 00:40:01,VALID,919.506,VALID,0,VALID,100,VALID,0,VALID,18.5693,VALID,136,VALID,0.359947,
2005-08-20, 00:41:00,VALID,919.5,VALID,0,VALID,100,VALID,0.0509425,VALID,18.5566,VALID,134,VALID,0.377232,
2005-08-20, 00:42:01,VALID,919.5,VALID,0,VALID,100,VALID,0.0169808,VALID,18.5501,VALID,134,VALID,0.15952,
2005-08-20, 00:43:01,VALID,919.502,VALID,0,VALID,100,VALID,0.0169808,VALID,18.5305,VALID,134,VALID,0.138889,
2005-08-20, 00:44:01,VALID,919.489,VALID,0,VALID,100,VALID,0.0169808,VALID,18.5181,VALID,134,VALID,0.290153,
2005-08-20, 00:45:01,VALID,919.497,VALID,0,VALID,100,VALID,0.0339617,VALID,18.4897,VALID,132,VALID,0.241806,
2005-08-20, 00:46:01,VALID,919.493,VALID,0,VALID,100,VALID,0,VALID,18.4376,VALID,122,VALID,0.32298,
2005-08-20, 00:47:01,VALID,919.485,VALID,0,VALID,100,VALID,0,VALID,18.3725,VALID,122,VALID,0.181212,
2005-08-20, 00:48:00,VALID,919.466,VALID,0,VALID,100,VALID,0.0339617,VALID,18.344,VALID,122,VALID,0.0545015,
2005-08-20, 00:49:01,VALID,919.447,VALID,0,VALID,100,VALID,0,VALID,18.3181,VALID,122,VALID,0.23778,
2005-08-20, 00:50:01,VALID,919.417,VALID,0,VALID,100,VALID,0.0169808,VALID,18.2658,VALID,122,VALID,0.29859,
2005-08-20, 00:51:01,VALID,919.407,VALID,0,VALID,100,VALID,0.0339617,VALID,18.2469,VALID,122,VALID,0.231468,
2005-08-20, 00:52:01,VALID,919.366,VALID,0,VALID,100,VALID,0.0169808,VALID,18.2406,VALID,122,VALID,0.299414,
2005-08-20, 00:53:00,VALID,919.357,VALID,0,VALID,100,VALID,0,VALID,18.221,VALID,122,VALID,0.415451,
2005-08-20, 00:54:01,VALID,919.339,VALID,0,VALID,100,VALID,0.0339617,VALID,18.2176,VALID,122,VALID,0.396151,
2005-08-20, 00:55:01,VALID,919.315,VALID,0,VALID,100,VALID,0,VALID,18.2213,VALID,122,VALID,0.379297,
2005-08-20, 00:56:01,VALID,919.305,VALID,0,VALID,100,VALID,0.0509425,VALID,18.1943,VALID,122,VALID,0.297585,
2005-08-20, 00:57:01,VALID,919.291,VALID,0,VALID,100,VALID,0.0509425,VALID,18.198,VALID,122,VALID,0.186806,
2005-08-20, 00:58:01,VALID,919.271,VALID,0,VALID,100,VALID,0.0509425,VALID,18.1987,VALID,122,VALID,0.19077,
2005-08-20, 00:59:01,VALID,919.287,VALID,0,VALID,100,VALID,0.0169808,VALID,18.1924,VALID,122,VALID,0.417882,
2005-08-20, 01:00:01,VALID,919.274,VALID,0,VALID,100,VALID,-0.0849042,VALID,18.1613,VALID,122,VALID,0.260156,
2005-08-20, 01:01:01,VALID,919.288,VALID,0,VALID,100,VALID,-0.0509425,VALID,18.1251,VALID,121,VALID,0.422238,
2005-08-20, 01:02:01,VALID,919.28,VALID,0,VALID,100,VALID,-0.0509425,VALID,18.1452,VALID,93,VALID,0.571987,
2005-08-20, 01:03:01,VALID,919.278,VALID,0,VALID,100,VALID,-0.101885,VALID,18.1738,VALID,87,VALID,0.739062,
2005-08-20, 01:04:01,VALID,919.273,VALID,0,VALID,100,VALID,-0.101885,VALID,18.2157,VALID,89,VALID,0.729802,
2005-08-20, 01:05:01,VALID,919.261,VALID,0,VALID,100,VALID,-0.0339617,VALID,18.2455,VALID,106,VALID,0.777902,
2005-08-20, 01:06:01,VALID,919.253,VALID,0,VALID,100,VALID,-0.0849042,VALID,18.2808,VALID,122,VALID,0.771205,
2005-08-20, 01:07:01,VALID,919.229,VALID,0,VALID,100,VALID,-0.101885,VALID,18.2974,VALID,118,VALID,0.934896,
2005-08-20, 01:08:01,VALID,919.202,VALID,0,VALID,100,VALID,-0.101885,VALID,18.2708,VALID,103,VALID,0.990278,
2005-08-20, 01:09:01,VALID,919.165,VALID,0,VALID,100,VALID,-0.0849042,VALID,18.2971,VALID,100,VALID,1.34851,
2005-08-20, 01:10:01,VALID,919.137,VALID,0,VALID,100,VALID,-0.101885,VALID,18.3135,VALID,108,VALID,1.27045,
2005-08-20, 01:11:01,VALID,919.096,VALID,0,VALID,100,VALID,-0.118866,VALID,18.3165,VALID,88,VALID,1.39499,
2005-08-20, 01:12:00,VALID,919.05,VALID,0,VALID,100,VALID,-0.101885,VALID,18.3001,VALID,72,VALID,1.0452,
2005-08-20, 01:13:00,VALID,919.005,VALID,0,VALID,100,VALID,-0.101885,VALID,18.2651,VALID,81,VALID,1.06813,
2005-08-20, 01:14:00,VALID,918.985,VALID,0,VALID,100,VALID,-0.0679233,VALID,18.2063,VALID,80,VALID,0.841493,
2005-08-20, 01:15:00,VALID,918.947,VALID,0,VALID,100,VALID,0.0169808,VALID,18.1371,VALID,76,VALID,1.09393,
2005-08-20, 01:16:00,VALID,918.932,VALID,0,VALID,100,VALID,0,VALID,18.1274,VALID,80,VALID,0.943407,
2005-08-20, 01:17:00,VALID,918.899,VALID,0,VALID,100,VALID,0.0509425,VALID,18.1276,VALID,80,VALID,0.973474,
2005-08-20, 01:18:00,VALID,918.872,VALID,0,VALID,100,VALID,0,VALID,18.1309,VALID,69,VALID,1.16388,
2005-08-20, 01:19:00,VALID,918.837,VALID,0,VALID,100,VALID,0,VALID,18.1311,VALID,57,VALID,1.29557,
2005-08-20, 01:20:00,VALID,918.807,VALID,0,VALID,100,VALID,0,VALID,18.0792,VALID,58,VALID,1.31473,
2005-08-20, 01:21:00,VALID,918.794,VALID,0,VALID,100,VALID,0,VALID,18.0571,VALID,53,VALID,1.48609,
2005-08-20, 01:22:00,VALID,918.782,VALID,0,VALID,100,VALID,0.0169808,VALID,18.0573,VALID,47,VALID,1.60728,
2005-08-20, 01:23:00,VALID,918.763,VALID,0,VALID,100,VALID,0.0169808,VALID,18.0795,VALID,54,VALID,1.64132,
2005-08-20, 01:24:00,VALID,918.759,VALID,0,VALID,100,VALID,0.0509425,VALID,18.1115,VALID,44,VALID,1.60193,
2005-08-20, 01:25:00,VALID,918.759,VALID,0,VALID,100,VALID,0,VALID,18.1083,VALID,38,VALID,1.45852,
2005-08-20, 01:26:00,VALID,918.76,VALID,0,VALID,100,VALID,0.0339617,VALID,18.0988,VALID,32,VALID,1.35938,
2005-08-20, 01:27:00,VALID,918.752,VALID,0,VALID,100,VALID,0.0339617,VALID,18.102,VALID,37,VALID,1.12809,
2005-08-20, 01:28:00,VALID,918.763,VALID,0,VALID,100,VALID,0,VALID,18.0859,VALID,49,VALID,1.1319,
2005-08-20, 01:29:00,VALID,918.763,VALID,0,VALID,100,VALID,0.0169808,VALID,18.0861,VALID,44,VALID,1.31117,
2005-08-20, 01:30:00,VALID,918.748,VALID,0,VALID,100,VALID,-0.0169808,VALID,18.07,VALID,35,VALID,1.17769,
2005-08-20, 01:31:00,VALID,918.751,VALID,0,VALID,100,VALID,-0.0679233,VALID,18.0769,VALID,33,VALID,1.14737,
2005-08-20, 01:32:00,VALID,918.73,VALID,0,VALID,100,VALID,-0.0509425,VALID,18.0377,VALID,50,VALID,1.01905,
2005-08-20, 01:33:00,VALID,918.743,VALID,0,VALID,100,VALID,-0.0849042,VALID,18.002,VALID,41,VALID,0.847852,
2005-08-20, 01:34:00,VALID,918.725,VALID,0,VALID,100,VALID,-0.0509425,VALID,17.9828,VALID,39,VALID,0.808408,
2005-08-20, 01:35:00,VALID,918.713,VALID,0,VALID,100,VALID,-0.0169808,VALID,17.9575,VALID,37,VALID,0.913867,
2005-08-20, 01:36:00,VALID,918.701,VALID,0,VALID,100,VALID,-0.0169808,VALID,17.9409,VALID,29,VALID,0.703316,
2005-08-20, 01:37:00,VALID,918.685,VALID,0,VALID,100,VALID,-0.0509425,VALID,17.9346,VALID,33,VALID,0.612282,
2005-08-20, 01:38:00,VALID,918.676,VALID,0,VALID,100,VALID,-0.0509425,VALID,17.9448,VALID,48,VALID,0.609885,
2005-08-20, 01:39:00,VALID,918.664,VALID,0,VALID,100,VALID,-0.0509425,VALID,17.9282,VALID,55,VALID,0.75327,
2005-08-20, 01:40:00,VALID,918.657,VALID,0,VALID,100,VALID,-0.0339617,VALID,17.9084,VALID,61,VALID,0.751674,
2005-08-20, 01:41:00,VALID,918.646,VALID,0,VALID,100,VALID,-0.0509425,VALID,17.9183,VALID,66,VALID,0.644886,
2005-08-20, 01:42:00,VALID,918.65,VALID,0,VALID,100,VALID,-0.0509425,VALID,17.9409,VALID,63,VALID,0.594658,
2005-08-20, 01:43:00,VALID,918.641,VALID,0,VALID,100,VALID,-0.0169808,VALID,17.9602,VALID,63,VALID,0.448933,
2005-08-20, 01:44:00,VALID,918.644,VALID,0,VALID,100,VALID,-0.0509425,VALID,17.957,VALID,63,VALID,0.324591,
2005-08-20, 01:45:00,VALID,918.628,VALID,0,VALID,100,VALID,-0.0169808,VALID,17.9505,VALID,63,VALID,0.0229048,
2005-08-20, 01:46:00,VALID,918.631,VALID,0,VALID,100,VALID,-0.0169808,VALID,17.9189,VALID,63,VALID,0.15605,
2005-08-20, 01:47:00,VALID,918.618,VALID,0,VALID,100,VALID,-0.0679233,VALID,17.8929,VALID,63,VALID,0.277734,
2005-08-20, 01:48:00,VALID,918.622,VALID,0,VALID,100,VALID,-0.0169808,VALID,17.8602,VALID,63,VALID,0.365473,
2005-08-20, 01:49:00,VALID,918.597,VALID,0,VALID,100,VALID,-0.0339617,VALID,17.8567,VALID,63,VALID,0.491587,
2005-08-20, 01:50:00,VALID,918.586,VALID,0,VALID,100,VALID,-0.0679233,VALID,17.8447,VALID,79,VALID,0.553285,
2005-08-20, 01:51:00,VALID,918.567,VALID,0,VALID,100,VALID,-0.0339617,VALID,17.8115,VALID,109,VALID,0.751776,
2005-08-20, 01:52:00,VALID,918.537,VALID,0,VALID,100,VALID,-0.0169808,VALID,17.8316,VALID,125,VALID,0.832332,
2005-08-20, 01:53:00,VALID,918.511,VALID,0,VALID,100,VALID,-0.0509425,VALID,17.8477,VALID,122,VALID,0.598214,
2005-08-20, 01:54:00,VALID,918.481,VALID,0,VALID,100,VALID,-0.0169808,VALID,17.8641,VALID,126,VALID,0.578125,
2005-08-20, 01:55:00,VALID,918.459,VALID,0,VALID,100,VALID,-0.0509425,VALID,17.8606,VALID,128,VALID,0.234561,
2005-08-20, 01:56:00,VALID,918.443,VALID,0,VALID,100,VALID,-0.0339617,VALID,17.8507,VALID,128,VALID,0.638393,
2005-08-20, 01:57:00,VALID,918.417,VALID,0,VALID,100,VALID,-0.0339617,VALID,17.8602,VALID,132,VALID,0.650391,
2005-08-20, 01:58:00,VALID,918.397,VALID,0,VALID,100,VALID,-0.0679233,VALID,17.8634,VALID,133,VALID,0.634722,
2005-08-20, 01:59:00,VALID,918.393,VALID,0,VALID,100,VALID,0,VALID,17.9056,VALID,139,VALID,0.935454,
2005-08-20, 02:00:00,VALID,918.383,VALID,0,VALID,100,VALID,0.0849042,VALID,17.9333,VALID,133,VALID,0.904762,
2005-08-20, 02:01:00,VALID,918.374,VALID,0,VALID,100,VALID,0.0679233,VALID,17.9593,VALID,132,VALID,0.779154,
2005-08-20, 02:02:00,VALID,918.372,VALID,0,VALID,100,VALID,0.0679233,VALID,17.9503,VALID,132,VALID,0.729992,
2005-08-20, 02:03:00,VALID,918.371,VALID,0,VALID,100,VALID,0.0679233,VALID,17.927,VALID,140,VALID,0.65767,
2005-08-20, 02:04:00,VALID,918.373,VALID,0,VALID,100,VALID,0.0849042,VALID,17.9084,VALID,141,VALID,0.379724,
2005-08-20, 02:05:00,VALID,918.37,VALID,0,VALID,100,VALID,0.0339617,VALID,17.8659,VALID,159,VALID,0.627604,
2005-08-20, 02:06:00,VALID,918.359,VALID,0,VALID,100,VALID,0.0509425,VALID,17.85,VALID,155,VALID,0.684775,
2005-08-20, 02:07:00,VALID,918.342,VALID,0,VALID,100,VALID,0.0169808,VALID,17.8371,VALID,160,VALID,0.655107,
2005-08-20, 02:08:00,VALID,918.344,VALID,0,VALID,100,VALID,0.0679233,VALID,17.8037,VALID,173,VALID,0.817522,
2005-08-20, 02:09:00,VALID,918.327,VALID,0,VALID,100,VALID,0.0339617,VALID,17.8307,VALID,177,VALID,0.627976,
2005-08-20, 02:10:00,VALID,918.331,VALID,0,VALID,100,VALID,0.0679233,VALID,17.8399,VALID,177,VALID,0.532452,
2005-08-20, 02:11:00,VALID,918.339,VALID,0,VALID,100,VALID,0.0679233,VALID,17.8268,VALID,177,VALID,0.332304,
2005-08-20, 02:12:00,VALID,918.356,VALID,0,VALID,100,VALID,0.0339617,VALID,17.8205,VALID,177,VALID,0.000710227,
2005-08-20, 02:13:00,VALID,918.355,VALID,0,VALID,100,VALID,0.0339617,VALID,17.818,VALID,177,VALID,0.167773,
2005-08-20, 02:14:00,VALID,918.36,VALID,0,VALID,100,VALID,0.0169808,VALID,17.8018,VALID,177,VALID,0.16915,
2005-08-20, 02:15:00,VALID,918.342,VALID,0,VALID,100,VALID,-0.0339617,VALID,17.7764,VALID,177,VALID,0.176953,
2005-08-20, 02:16:00,VALID,918.329,VALID,0,VALID,100,VALID,-0.0169808,VALID,17.7345,VALID,176,VALID,0.534784,
2005-08-20, 02:17:00,VALID,918.311,VALID,0,VALID,100,VALID,-0.0169808,VALID,17.719,VALID,170,VALID,0.558949,
2005-08-20, 02:18:00,VALID,918.312,VALID,0,VALID,100,VALID,-0.0169808,VALID,17.7089,VALID,162,VALID,0.655878,
2005-08-20, 02:19:00,VALID,918.293,VALID,0,VALID,100,VALID,0.0169808,VALID,17.6996,VALID,142,VALID,0.587326,
2005-08-20, 02:20:00,VALID,918.302,VALID,0,VALID,100,VALID,-0.0169808,VALID,17.7024,VALID,140,VALID,0.75816,
2005-08-20, 02:21:00,VALID,918.292,VALID,0,VALID,100,VALID,0,VALID,17.722,VALID,128,VALID,0.721354,
2005-08-20, 02:22:00,VALID,918.302,VALID,0,VALID,100,VALID,0,VALID,17.7414,VALID,108,VALID,1.00167,
2005-08-20, 02:23:00,VALID,918.298,VALID,0,VALID,100,VALID,0.0169808,VALID,17.7511,VALID,101,VALID,1.0173,
2005-08-20, 02:24:00,VALID,918.305,VALID,0,VALID,100,VALID,0,VALID,17.7412,VALID,99,VALID,1.02816,
2005-08-20, 02:25:00,VALID,918.295,VALID,0,VALID,100,VALID,-0.0169808,VALID,17.7347,VALID,101,VALID,1.62118,
2005-08-20, 02:26:00,VALID,918.288,VALID,0,VALID,100,VALID,0,VALID,17.7444,VALID,104,VALID,1.63337,
2005-08-20, 02:27:00,VALID,918.276,VALID,0,VALID,100,VALID,-0.0339617,VALID,17.7448,VALID,92,VALID,1.0383,
2005-08-20, 02:28:00,VALID,918.272,VALID,0,VALID,100,VALID,0,VALID,17.7089,VALID,98,VALID,0.965511,
2005-08-20, 02:29:00,VALID,918.251,VALID,0,VALID,100,VALID,-0.0169808,VALID,17.7186,VALID,90,VALID,1.16562,
2005-08-20, 02:30:00,VALID,918.245,VALID,0,VALID,100,VALID,0,VALID,17.7442,VALID,63,VALID,1.0992,
2005-08-20, 02:31:00,VALID,918.232,VALID,0,VALID,100,VALID,0,VALID,17.7349,VALID,60,VALID,1.13512,
2005-08-20, 02:32:00,VALID,918.233,VALID,0,VALID,100,VALID,-0.0169808,VALID,17.6932,VALID,56,VALID,1.4185,
2005-08-20, 02:33:00,VALID,918.21,VALID,0,VALID,100,VALID,-0.0169808,VALID,17.6865,VALID,59,VALID,1.21893,
2005-08-20, 02:34:00,VALID,918.186,VALID,0,VALID,100,VALID,-0.0169808,VALID,17.6609,VALID,65,VALID,0.943051,
2005-08-20, 02:35:00,VALID,918.178,VALID,0,VALID,100,VALID,-0.0169808,VALID,17.6252,VALID,70,VALID,0.580983,
2005-08-20, 02:36:00,VALID,918.169,VALID,0,VALID,100,VALID,-0.0169808,VALID,17.5933,VALID,65,VALID,0.834872,
2005-08-20, 02:37:00,VALID,918.155,VALID,0,VALID,100,VALID,0,VALID,17.5481,VALID,62,VALID,1.05382,
2005-08-20, 02:38:00,VALID,918.139,VALID,0,VALID,100,VALID,0,VALID,17.5191,VALID,73,VALID,1.05729,
2005-08-20, 02:39:00,VALID,918.119,VALID,0,VALID,100,VALID,0,VALID,17.5085,VALID,81,VALID,1.28961,
2005-08-20, 02:40:00,VALID,918.107,VALID,0,VALID,100,VALID,-0.0169808,VALID,17.5477,VALID,90,VALID,1.52264,
2005-08-20, 02:41:00,VALID,918.092,VALID,0,VALID,100,VALID,0,VALID,17.5959,VALID,102,VALID,1.53729,
2005-08-20, 02:42:00,VALID,918.069,VALID,0,VALID,100,VALID,-0.0169808,VALID,17.612,VALID,96,VALID,1.20567,
2005-08-20, 02:43:00,VALID,918.036,VALID,0,VALID,100,VALID,0,VALID,17.6118,VALID,96,VALID,1.21056,
2005-08-20, 02:44:00,VALID,918.011,VALID,0,VALID,100,VALID,-0.0169808,VALID,17.6155,VALID,105,VALID,1.54908,
2005-08-20, 02:45:00,VALID,917.988,VALID,0,VALID,100,VALID,0,VALID,17.6118,VALID,107,VALID,1.41515,
2005-08-20, 02:46:00,VALID,917.966,VALID,0,VALID,100,VALID,0,VALID,17.6155,VALID,104,VALID,1.30849,
2005-08-20, 02:47:00,VALID,917.946,VALID,0,VALID,100,VALID,0,VALID,17.606,VALID,106,VALID,1.22039,
2005-08-20, 02:48:00,VALID,917.912,VALID,0,VALID,100,VALID,-0.0169808,VALID,17.6093,VALID,109,VALID,1.42839,
2005-08-20, 02:49:00,VALID,917.881,VALID,0,VALID,100,VALID,-0.0169808,VALID,17.6189,VALID,115,VALID,1.14272,
2005-08-20, 02:50:00,VALID,917.861,VALID,0,VALID,100,VALID,0,VALID,17.6217,VALID,109,VALID,0.946354,
2005-08-20, 02:51:00,VALID,917.853,VALID,0,VALID,100,VALID,-0.0169808,VALID,17.6475,VALID,107,VALID,1.2381,
2005-08-20, 02:52:00,VALID,917.841,VALID,0,VALID,100,VALID,-0.0169808,VALID,17.6764,VALID,95,VALID,1.3988,
2005-08-20, 02:53:00,VALID,917.827,VALID,0,VALID,100,VALID,0,VALID,17.6932,VALID,84,VALID,0.986737,
2005-08-20, 02:54:00,VALID,917.83,VALID,0,VALID,100,VALID,0,VALID,17.719,VALID,105,VALID,1.43895,
2005-08-20, 02:55:00,VALID,917.827,VALID,0,VALID,100,VALID,-0.0169808,VALID,17.7481,VALID,115,VALID,0.936773,
2005-08-20, 02:56:00,VALID,917.817,VALID,0,VALID,100,VALID,0,VALID,17.761,VALID,125,VALID,0.959604,
2005-08-20, 02:57:00,VALID,917.802,VALID,0,VALID,100,VALID,-0.0169808,VALID,17.7672,VALID,137,VALID,0.521621,
2005-08-20, 02:58:00,VALID,917.792,VALID,0,VALID,100,VALID,0,VALID,17.7704,VALID,132,VALID,0.884681,
2005-08-20, 02:59:00,VALID,917.783,VALID,0,VALID,100,VALID,0.0169808,VALID,17.7797,VALID,130,VALID,1.14613,
2005-08-20, 03:00:00,VALID,917.765,VALID,0.2,VALID,100,VALID,0,VALID,17.8062,VALID,142,VALID,1.06795,
2005-08-20, 03:01:00,VALID,917.765,VALID,0,VALID,100,VALID,-0.0169808,VALID,17.832,VALID,123,VALID,1.12806,
2005-08-20, 03:02:00,VALID,917.769,VALID,0,VALID,100,VALID,-0.0169808,VALID,17.8189,VALID,129,VALID,1.28418,
2005-08-20, 03:03:00,VALID,917.774,VALID,0,VALID,100,VALID,0,VALID,17.8385,VALID,130,VALID,1.03773,
2005-08-20, 03:04:00,VALID,917.772,VALID,0,VALID,100,VALID,0,VALID,17.8385,VALID,130,VALID,0.718387,
2005-08-20, 03:05:00,VALID,917.782,VALID,0,VALID,100,VALID,-0.0169808,VALID,17.8193,VALID,117,VALID,0.861793,
2005-08-20, 03:06:00,VALID,917.771,VALID,0,VALID,100,VALID,0.0169808,VALID,17.7956,VALID,133,VALID,1.2556,
2005-08-20, 03:07:00,VALID,917.774,VALID,0,VALID,100,VALID,-0.0339617,VALID,17.7993,VALID,132,VALID,1.18824,
2005-08-20, 03:08:00,VALID,917.77,VALID,0,VALID,100,VALID,0,VALID,17.7965,VALID,134,VALID,1.23789,
2005-08-20, 03:09:00,VALID,917.744,VALID,0,VALID,100,VALID,0.0339617,VALID,17.773,VALID,143,VALID,1.19767,
2005-08-20, 03:10:00,VALID,917.731,VALID,0,VALID,100,VALID,0,VALID,17.7764,VALID,136,VALID,1.17205,
2005-08-20, 03:11:00,VALID,917.735,VALID,0,VALID,100,VALID,0,VALID,17.7769,VALID,144,VALID,1.36424,
2005-08-20, 03:12:00,VALID,917.728,VALID,0,VALID,100,VALID,0.0169808,VALID,17.7605,VALID,130,VALID,1.46023,
2005-08-20, 03:13:00,VALID,917.724,VALID,0,VALID,100,VALID,0,VALID,17.7575,VALID,137,VALID,1.12705,
2005-08-20, 03:14:00,VALID,917.721,VALID,0,VALID,100,VALID,0,VALID,17.7571,VALID,131,VALID,1.2885,
2005-08-20, 03:15:00,VALID,917.712,VALID,0,VALID,100,VALID,0,VALID,17.7833,VALID,140,VALID,1.0149,
2005-08-20, 03:16:00,VALID,917.714,VALID,0,VALID,100,VALID,-0.0169808,VALID,17.7965,VALID,141,VALID,1.02859,
2005-08-20, 03:17:00,VALID,917.714,VALID,0,VALID,100,VALID,-0.0509425,VALID,17.7771,VALID,130,VALID,1.31898,
2005-08-20, 03:18:00,VALID,917.706,VALID,0,VALID,100,VALID,-0.0509425,VALID,17.7868,VALID,118,VALID,1.09375,
2005-08-20, 03:19:00,VALID,917.687,VALID,0,VALID,100,VALID,0,VALID,17.7771,VALID,131,VALID,0.991629,
2005-08-20, 03:20:00,VALID,917.681,VALID,0,VALID,100,VALID,0,VALID,17.7773,VALID,118,VALID,0.921503,
2005-08-20, 03:21:00,VALID,917.673,VALID,0,VALID,100,VALID,-0.0169808,VALID,17.767,VALID,115,VALID,0.826367,
2005-08-20, 03:22:00,VALID,917.663,VALID,0,VALID,100,VALID,-0.0169808,VALID,17.7608,VALID,123,VALID,0.504573,
2005-08-20, 03:23:00,VALID,917.64,VALID,0,VALID,100,VALID,-0.0169808,VALID,17.7483,VALID,143,VALID,1.06996,
2005-08-20, 03:24:00,VALID,917.621,VALID,0,VALID,100,VALID,-0.0169808,VALID,17.7605,VALID,134,VALID,1.11514,
2005-08-20, 03:25:00,VALID,917.607,VALID,0,VALID,100,VALID,0,VALID,17.7575,VALID,141,VALID,1.03016,
2005-08-20, 03:26:00,VALID,917.584,VALID,0,VALID,100,VALID,0,VALID,17.7767,VALID,148,VALID,1.22199,
2005-08-20, 03:27:00,VALID,917.566,VALID,0,VALID,100,VALID,0,VALID,17.8029,VALID,143,VALID,1.07635,
2005-08-20, 03:28:00,VALID,917.561,VALID,0,VALID,100,VALID,0,VALID,17.8189,VALID,142,VALID,1.23531,
2005-08-20, 03:29:00,VALID,917.537,VALID,0,VALID,100,VALID,0,VALID,17.802,VALID,140,VALID,1.25266,
2005-08-20, 03:30:00,VALID,917.52,VALID,0,VALID,100,VALID,0.0169808,VALID,17.7737,VALID,138,VALID,1.43641,
2005-08-20, 03:31:00,VALID,917.506,VALID,0,VALID,100,VALID,-0.0339617,VALID,17.7508,VALID,139,VALID,1.71294,
2005-08-20, 03:32:00,VALID,917.483,VALID,0,VALID,100,VALID,0,VALID,17.7513,VALID,130,VALID,1.7311,
2005-08-20, 03:33:00,VALID,917.466,VALID,0,VALID,100,VALID,-0.0169808,VALID,17.7674,VALID,133,VALID,1.78776,
2005-08-20, 03:34:00,VALID,917.446,VALID,0,VALID,100,VALID,0,VALID,17.7732,VALID,127,VALID,1.49746,
2005-08-20, 03:35:00,VALID,917.446,VALID,0,VALID,100,VALID,0,VALID,17.7799,VALID,147,VALID,1.61953,
2005-08-20, 03:36:00,VALID,917.437,VALID,0,VALID,100,VALID,0,VALID,17.8062,VALID,144,VALID,1.69611,
2005-08-20, 03:37:00,VALID,917.432,VALID,0,VALID,100,VALID,0,VALID,17.7995,VALID,141,VALID,1.33954,
2005-08-20, 03:38:00,VALID,917.426,VALID,0,VALID,100,VALID,-0.0169808,VALID,17.8062,VALID,142,VALID,1.34629,
2005-08-20, 03:39:00,VALID,917.427,VALID,0,VALID,100,VALID,0,VALID,17.799,VALID,148,VALID,1.19741,
2005-08-20, 03:40:00,VALID,917.423,VALID,0,VALID,100,VALID,0,VALID,17.7861,VALID,136,VALID,1.27179,
2005-08-20, 03:41:00,VALID,917.423,VALID,0,VALID,100,VALID,0,VALID,17.7827,VALID,143,VALID,1.02046,
2005-08-20, 03:42:00,VALID,917.421,VALID,0,VALID,100,VALID,0,VALID,17.7792,VALID,139,VALID,1.23438,